Location: ?????????
(44.2517°N, 135.2292°E)
Time: 01:32:48
(UTC+00:00)

Cosmos 2227 Rocket - Pass Details

Date: 19 May 2025
Orbit: 837 x 844 km, 71.0° (Epoch: 13 June)

Event Time Altitude Azimuth Distance (km) Brightness Sun altitude
Exits shadow 16:21:21 13° 132° (SE) 2,237 4.2 -22.9°
Maximum altitude 16:24:03 18° 99° (E) 1,951 4.2 -22.7°
Drops below altitude 10° 16:27:42 10° 58° (ENE) 2,459 5.4 -22.5°
Sets 16:30:54 0° 40° (NE) 3,400 6.7 -22.2°
